FW4407 Weather Reports


Display with metric or nautical units.
time (UTC)temp
F
wind
direction
speed
MPH
gust
MPH
rain 1hr
in
rain 24hr
in
rain mn
in
humidity
%
barometer
mb
20260903050019 80 137 4.0 10.0 0.00 0.00 0.00 54 1014.7
20260903045027 80 121 5.0 13.0 0.00 0.00 0.00 52 1014.7
20260903044019 80 121 6.0 13.0 0.00 0.00 0.00 51 1014.6
20260903043027 80 132 4.0 10.0 0.00 0.00 0.00 49 1014.4
20260903042019 81 123 3.0 10.0 0.00 0.00 0.00 49 1014.4
20260903041027 81 124 2.0 10.0 0.00 0.00 0.00 49 1014.4
20260903040019 81 135 2.0 8.0 0.00 0.00 0.00 48 1014.4
20260903035027 81 126 1.0 8.0 0.00 0.00 0.00 46 1014.2
20260903034019 81 133 2.0 8.0 0.00 0.00 0.00 45 1014.2
20260903033027 81 116 2.0 8.0 0.00 0.00 0.00 44 1014.3
20260903032019 81 8 1.0 5.0 0.00 0.00 0.00 44 1014.1
20260903031027 82 21 1.0 8.0 0.00 0.00 0.00 44 1014.1
20260903030020 82 16 0.0 5.0 0.00 0.00 0.00 44 1014.1
20260903025027 82 12 3.0 8.0 0.00 0.00 0.00 43 1014.3
20260903024019 82 13 3.0 8.0 0.00 0.00 0.00 43 1014.4
20260903023027 82 9 3.0 10.0 0.00 0.00 0.00 43 1014.5
20260903022019 82 358 2.0 8.0 0.00 0.00 0.00 42 1014.5
20260903021027 82 19 2.0 8.0 0.00 0.00 0.00 42 1014.5
20260903020039 81 43 2.0 8.0 0.00 0.00 0.00 42 1014.2
20260903015047 81 126 1.0 5.0 0.00 0.00 0.00 42 1014.2
20260903014019 81 128 2.0 8.0 0.00 0.00 0.00 42 1014.3
20260903013027 81 111 1.0 5.0 0.00 0.00 0.00 42 1014.4
20260903012039 81 123 1.0 5.0 0.00 0.00 0.00 43 1014.5
20260903011027 81 113 1.0 5.0 0.00 0.00 0.00 43 1014.4
20260903010019 81 129 3.0 8.0 0.00 0.00 0.00 43 1014.5
20260903005027 81 131 3.0 8.0 0.00 0.00 0.00 43 1014.5
20260903004019 81 121 4.0 10.0 0.00 0.00 0.00 43 1014.6
20260903003027 82 118 3.0 8.0 0.00 0.00 0.00 42 1014.5
20260903002019 82 130 4.0 15.0 0.00 0.00 0.00 42 1014.5
20260903001027 82 118 5.0 10.0 0.00 0.00 0.00 42 1014.4
20260903000019 82 120 5.0 10.0 0.00 0.00 0.00 42 1014.5
20260902235027 82 121 5.0 10.0 0.00 0.00 0.00 42 1014.4
20260902234019 82 130 5.0 13.0 0.00 0.00 0.00 42 1014.5
20260902233027 82 114 5.0 13.0 0.00 0.00 0.00 42 1014.5
20260902232021 82 121 4.0 13.0 0.00 0.00 0.00 42 1014.5
20260902231027 82 124 6.0 13.0 0.00 0.00 0.00 41 1014.6
20260902230019 83 128 6.0 15.0 0.00 0.00 0.00 41 1014.6
20260902225027 82 134 6.0 13.0 0.00 0.00 0.00 41 1014.6
20260902224019 81 125 5.0 13.0 0.00 0.00 0.00 41 1014.8
20260902223027 81 122 5.0 13.0 0.00 0.00 0.00 41 1014.8
20260902222019 80 131 1.0 10.0 0.00 0.00 0.00 43 1014.8
20260902221027 81 0.0 0.0 0.00 0.00 0.00 44 1015.1
20260902220019 81 0.0 0.0 0.00 0.00 0.00 43 1015.1
20260902215028 81 0.0 0.0 0.00 0.00 0.00 42 1014.9
20260902214020 81 0.0 0.0 0.00 0.00 0.00 42 1015.1
20260902213049 82 0.0 0.0 0.00 0.00 0.00 42 1015.2
20260902212040 82 15 0.0 2.0 0.00 0.00 0.00 41 1015.2
20260902211048 83 0.0 0.0 0.00 0.00 0.00 40 1015.4
20260902210020 83 133 1.0 5.0 0.00 0.00 0.00 39 1015.4
20260902205048 83 128 4.0 8.0 0.00 0.00 0.00 39 1015.3
20260902204019 83 129 1.0 8.0 0.00 0.00 0.00 39 1015.3
20260902203028 84 0.0 0.0 0.00 0.00 0.00 39 1015.4
20260902202020 83 40 1.0 5.0 0.00 0.00 0.00 39 1015.5
20260902201027 83 128 3.0 10.0 0.00 0.00 0.00 38 1015.3
20260902200020 83 49 1.0 8.0 0.00 0.00 0.00 39 1015.5
20260902195028 84 0.0 0.0 0.00 0.00 0.00 39 1015.4
20260902194020 84 357 1.0 5.0 0.00 0.00 0.00 39 1015.5
20260902193028 84 127 1.0 8.0 0.00 0.00 0.00 38 1015.4
20260902192019 84 144 0.0 5.0 0.00 0.00 0.00 38 1015.4
20260902191027 85 124 2.0 8.0 0.00 0.00 0.00 38 1015.5
20260902190019 85 130 1.0 8.0 0.00 0.00 0.00 38 1015.4
20260902185028 85 123 3.0 13.0 0.00 0.00 0.00 37 1015.4
20260902184040 85 113 2.0 8.0 0.00 0.00 0.00 37 1015.4
20260902183047 85 129 4.0 10.0 0.00 0.00 0.00 37 1015.3
20260902182020 85 129 3.0 10.0 0.00 0.00 0.00 37 1015.2
20260902181027 85 126 3.0 10.0 0.00 0.00 0.00 37 1015.2
20260902180019 85 122 4.0 13.0 0.00 0.00 0.00 36 1015.2
20260902175028 86 140 2.0 8.0 0.00 0.00 0.00 37 1015.1
20260902174020 86 122 3.0 10.0 0.00 0.00 0.00 36 1015.1
20260902173028 86 29 1.0 5.0 0.00 0.00 0.00 36 1015.0
20260902172020 87 21 1.0 5.0 0.00 0.00 0.00 36 1015.0
20260902171028 87 7 0.0 2.0 0.00 0.00 0.00 36 1015.0
20260902170020 88 9 1.0 8.0 0.00 0.00 0.00 35 1014.7
20260902165027 88 18 2.0 8.0 0.00 0.00 0.00 35 1015.0
20260902164019 89 14 3.0 13.0 0.00 0.00 0.00 35 1015.0
20260902163027 89 7 3.0 10.0 0.00 0.00 0.00 35 1015.1
20260902162019 90 110 3.0 13.0 0.00 0.00 0.00 34 1015.1
20260902161028 90 115 4.0 8.0 0.00 0.00 0.00 34 1015.2
20260902155515 91 8 3.0 10.0 0.00 0.00 0.00 33 1015.4
20260902154523 91 63 4.0 13.0 0.00 0.00 0.00 33 1015.2
20260902153516 92 114 4.0 13.0 0.00 0.00 0.00 33 1015.3
20260902152524 92 51 3.0 8.0 0.00 0.00 0.00 32 1015.4
20260902151515 92 2 4.0 13.0 0.00 0.00 0.00 31 1015.3
20260902150603 92 123 3.0 13.0 0.00 0.00 0.00 32 1015.4
20260902145516 93 131 6.0 15.0 0.00 0.00 0.00 31 1015.4
20260902144523 93 121 6.0 15.0 0.00 0.00 0.00 31 1015.4
20260902143515 92 114 4.0 13.0 0.00 0.00 0.00 30 1015.4
20260902142523 92 135 7.0 17.0 0.00 0.00 0.00 31 1015.5
20260902141515 93 128 9.0 23.0 0.00 0.00 0.00 30 1015.6
20260902140523 93 125 7.0 13.0 0.00 0.00 0.00 30 1015.7
20260902135516 93 124 7.0 20.0 0.00 0.00 0.00 29 1015.8
20260902134523 92 123 4.0 13.0 0.00 0.00 0.00 29 1015.8
20260902133515 93 131 7.0 20.0 0.00 0.00 0.00 30 1015.8
20260902132523 93 129 8.0 17.0 0.00 0.00 0.00 30 1015.8
20260902131536 93 121 10.0 25.0 0.00 0.00 0.00 29 1015.9
20260902130523 94 129 9.0 23.0 0.00 0.00 0.00 28 1016.0
20260902125516 94 125 6.0 13.0 0.00 0.00 0.00 28 1015.9
20260902124523 93 121 9.0 28.0 0.00 0.00 0.00 28 1016.0
20260902123535 94 124 8.0 25.0 0.00 0.00 0.00 28 1016.2
20260902122523 94 121 9.0 25.0 0.00 0.00 0.00 28 1016.2
20260902121536 94 110 9.0 23.0 0.00 0.00 0.00 28 1016.5
20260902120523 93 18 6.0 23.0 0.00 0.00 0.00 28 1016.4
20260902115516 93 54 7.0 17.0 0.00 0.00 0.00 28 1016.5
20260902114523 93 102 6.0 20.0 0.00 0.00 0.00 28 1016.5
20260902113515 93 104 9.0 23.0 0.00 0.00 0.00 28 1016.5
20260902112523 93 57 8.0 25.0 0.00 0.00 0.00 28 1016.5
20260902111535 93 82 6.0 23.0 0.00 0.00 0.00 27 1016.6
20260902110544 93 27 7.0 17.0 0.00 0.00 0.00 27 1016.7
20260902105515 93 91 7.0 17.0 0.00 0.00 0.00 26 1016.6
20260902104543 93 92 8.0 20.0 0.00 0.00 0.00 26 1016.8
20260902103515 93 138 7.0 25.0 0.00 0.00 0.00 26 1016.8
20260902102523 93 125 8.0 17.0 0.00 0.00 0.00 27 1016.8
20260902101515 93 108 9.0 20.0 0.00 0.00 0.00 27 1017.1
20260902100524 93 128 8.0 20.0 0.00 0.00 0.00 27 1017.2
20260902095515 93 121 10.0 30.0 0.00 0.00 0.00 28 1017.2
20260902094523 93 130 8.0 23.0 0.00 0.00 0.00 28 1017.0
20260902093515 92 122 7.0 25.0 0.00 0.00 0.00 29 1017.0
20260902092523 92 73 6.0 17.0 0.00 0.00 0.00 29 1016.9
20260902091515 92 120 9.0 23.0 0.00 0.00 0.00 29 1016.8
20260902090523 92 121 6.0 17.0 0.00 0.00 0.00 29 1016.5
20260902085515 92 54 8.0 30.0 0.00 0.00 0.00 30 1016.6
20260902084543 91 77 6.0 23.0 0.00 0.00 0.00 30 1016.5
20260902083515 91 87 7.0 17.0 0.00 0.00 0.00 31 1016.5
20260902082543 91 40 9.0 23.0 0.00 0.00 0.00 33 1016.5
20260902081515 91 49 7.0 20.0 0.00 0.00 0.00 32 1016.5
20260902080523 91 120 6.0 15.0 0.00 0.00 0.00 33 1016.7
20260902075515 91 359 4.0 17.0 0.00 0.00 0.00 33 1016.5
20260902074523 90 34 2.0 8.0 0.00 0.00 0.00 33 1016.7
20260902073515 89 65 4.0 17.0 0.00 0.00 0.00 34 1016.6
20260902072523 89 126 3.0 10.0 0.00 0.00 0.00 34 1016.7
20260902071515 89 11 5.0 15.0 0.00 0.00 0.00 35 1016.8
20260902070523 88 20 4.0 15.0 0.00 0.00 0.00 35 1016.7
20260902065515 88 54 4.0 20.0 0.00 0.00 0.00 36 1016.5
20260902064523 88 109 5.0 15.0 0.00 0.00 0.00 36 1016.5
20260902063515 88 118 6.0 15.0 0.00 0.00 0.00 35 1016.5
20260902062523 88 130 5.0 15.0 0.00 0.00 0.00 36 1016.6
20260902061535 88 119 2.0 10.0 0.00 0.00 0.00 37 1016.5
20260902060523 88 132 1.0 5.0 0.00 0.00 0.00 37 1016.5
20260902055535 87 182 0.0 5.0 0.00 0.00 0.00 36 1016.5
20260902054603 86 118 4.0 13.0 0.00 0.00 0.00 38 1016.5
20260902053515 85 185 1.0 8.0 0.00 0.00 0.00 38 1016.4
20260902052523 84 165 1.0 5.0 0.00 0.00 0.00 40 1016.4
20260902051515 83 187 1.0 2.0 0.00 0.00 0.00 43 1016.4
20260902050523 82 0.0 0.0 0.00 0.00 0.00 46 1016.4